Terug naar catalogus

STARLINK-30071

ActiefCommunicatieVLEO
NORAD 56708·PAYLOAD·🇺🇸 United States

Gelanceerd May 19, 2023 vanaf Cape Canaveral Space Force Station

Loading…

Volgende Passages (komende 24 uur)

TLE

VersSource: CelesTrak SupGP

Epoch: Sep 14, 2026, 21:46 UTC

1 56708C 23067W   26257.90743056  .00001000  00000+0  36237-4 0  2572
2 56708  43.0003 286.0608 0001768 262.4482 188.1634 15.27570794    17

Volg STARLINK-30071 in realtime met AllMySat

Download on the App Store